Location: Utrecht
(52.0907°N, 5.1214°E)
Time: 01:30:10
(UTC+02:00)

UWE-3 - Visible Passes

Search period start: 28 June 2022 00:00
Search period end: 08 July 2022 00:00
Orbit: 581 x 680 km, 97.7° (Epoch: 27 June)

Date Brightness Start Highest point End Pass type
(mag) Time Alt. Az. Time Alt. Az. Time Alt. Az.
30 Jun ? 03:53:10 10° NE 03:55:35 15° E 03:58:01 10° ESE visible
01 Jul ? 04:12:56 10° NE 04:16:19 22° E 04:19:46 10° SE visible
02 Jul ? 04:33:03 10° NNE 04:37:00 33° E 04:41:01 10° SSE visible
04 Jul ? 03:39:51 10° ENE 03:41:07 11° E 03:42:24 10° ESE visible
05 Jul ? 03:59:00 10° NE 04:01:53 17° E 04:04:50 10° SE visible
06 Jul ? 04:18:55 10° NE 04:22:36 26° E 04:26:20 10° SSE visible
07 Jul ? 04:39:07 10° NNE 04:43:14 38° E 04:47:27 10° SSE visible
